Weather History for Novato, CA

Change the Weather History Date:

Friday, June 21, 2013

  Actual Average (KAPC) Record (KAPC)
Temperature  
Mean Temperature 64 °F 65 °F  
Max Temperature 82 °F 79 °F 100 °F (2008)
Min Temperature 46 °F 51 °F 45 °F (2009)
Degree Days  
Heating Degree Days 1    
Month to date heating degree days  
Since 1 June heating degree days  
Since 1 July heating degree days  
Cooling Degree Days 0    
Month to date cooling degree days  
Year to date cooling degree days  
Since 1 June cooling degree days  
Growing Degree Days 14 (Base 50)    
Moisture  
Dew Point 47 °F    
Average Humidity 62    
Maximum Humidity 100    
Minimum Humidity 23    
Precipitation  
Precipitation 0.00 in - 0.00 in (2014)
Month to date precipitation  
Year to date precipitation  
Since 1 July precipitation  
Sea Level Pressure  
Sea Level Pressure 29.95 in    
Wind  
Wind Speed 4 mph (SW)    
Max Wind Speed 17 mph    
Max Gust Speed 22 mph    
Visibility 10 miles    
Events      
T = Trace of Precipitation, MM = Missing Value Source: NWS Daily Summary

Daily Weather History Graph

Daily Weather History Graph

Search for Another Location

Airport:

Trip Planner

Search our weather history database for the weather conditions in past years. The results will help you decide how hot, cold, wet, or windy it might be!

Date:

Astronomy

Jun. 21, 2013 Rise Set
Actual Time 5:47 AM PDT 8:36 PM PDT
Civil Twilight 5:15 AM PDT 9:08 PM PDT
Nautical Twilight 4:36 AM PDT 9:47 PM PDT
Astronomical Twilight 3:51 AM PDT 10:33 PM PDT
Moon 6:54 PM PDT (6/21) 4:06 AM PDT (6/21)
Length of Visible Light 15h 52m
Length of Day
14h 49m
Waxing Gibbous, 96% of the Moon is Illuminated
Jun 21
Waxing Gibbous
Jun 23
Full
Jun 29
Last Quarter
Jul 8
New
Jul 15
First Quarter

Hourly Weather History & Observations

Time (PDT) Temp. Windchill Dew Point Humidity Pressure Visibility Wind Dir Wind Speed Gust Speed Precip Events Conditions
12:15 AM 53.6 °F - 48.2 °F 82% 29.98 in 10.0 mi Calm Calm - N/A   Clear
12:35 AM 50.0 °F - 48.2 °F 94% 29.97 in 10.0 mi Calm Calm - N/A   Clear
12:55 AM 51.8 °F - 48.2 °F 88% 29.97 in 10.0 mi Calm Calm - N/A   Clear
1:15 AM 51.8 °F - 48.2 °F 88% 29.97 in 10.0 mi Calm Calm - N/A   Clear
1:35 AM 50.0 °F - 48.2 °F 94% 29.97 in 10.0 mi Calm Calm - N/A   Clear
1:55 AM 46.4 °F - 46.4 °F 100% 29.97 in 10.0 mi Calm Calm - N/A   Clear
2:15 AM 50.0 °F - 48.2 °F 94% 29.97 in 10.0 mi Calm Calm - N/A   Clear
2:35 AM 50.0 °F - 48.2 °F 94% 29.97 in 10.0 mi Calm Calm - N/A   Clear
2:55 AM 50.0 °F - 48.2 °F 94% 29.96 in 10.0 mi Calm Calm - N/A   Clear
3:15 AM 50.0 °F - 48.2 °F 94% 29.96 in 10.0 mi Calm Calm - N/A   Clear
3:35 AM 50.0 °F - 48.2 °F 94% 29.96 in 10.0 mi Calm Calm - N/A   Clear
3:55 AM 48.2 °F - 48.2 °F 100% 29.96 in 10.0 mi SW 3.5 mph - N/A   Clear
4:15 AM 48.2 °F - 48.2 °F 100% 29.96 in 10.0 mi Calm Calm - N/A   Clear
4:35 AM 46.4 °F - 46.4 °F 100% 29.96 in 10.0 mi Calm Calm - N/A   Clear
4:55 AM 46.4 °F 45.2 °F 46.4 °F 100% 29.96 in 10.0 mi South 3.5 mph - N/A   Clear
5:15 AM 48.2 °F - 48.2 °F 100% 29.96 in 10.0 mi Calm Calm - N/A   Clear
5:35 AM 48.2 °F - 48.2 °F 100% 29.96 in 10.0 mi Calm Calm - N/A   Clear
5:55 AM 48.2 °F - 48.2 °F 100% 29.96 in 10.0 mi Calm Calm - N/A   Clear
6:15 AM 48.2 °F - 48.2 °F 100% 29.97 in 10.0 mi Calm Calm - N/A   Clear
6:35 AM 48.2 °F - 48.2 °F 100% 29.97 in 10.0 mi Calm Calm - N/A   Clear
6:55 AM 48.2 °F - 48.2 °F 100% 29.98 in 10.0 mi Calm Calm - N/A   Clear
7:15 AM 51.8 °F - 50.0 °F 94% 29.98 in 10.0 mi Calm Calm - N/A   Clear
7:35 AM 53.6 °F - 48.2 °F 82% 29.98 in 10.0 mi Calm Calm - N/A   Clear
7:55 AM 55.4 °F - 48.2 °F 77% 29.98 in 10.0 mi Calm Calm - N/A   Clear
8:15 AM 57.2 °F - 48.2 °F 72% 29.99 in 10.0 mi Calm Calm - N/A   Clear
8:35 AM 59.0 °F - 48.2 °F 67% 29.99 in 10.0 mi Calm Calm - N/A   Clear
8:55 AM 60.8 °F - 48.2 °F 63% 29.99 in 10.0 mi Calm Calm - N/A   Clear
9:15 AM 64.4 °F - 48.2 °F 56% 29.99 in 10.0 mi WNW 3.5 mph - N/A   Clear
9:35 AM 66.2 °F - 48.2 °F 52% 29.98 in 10.0 mi SSW 4.6 mph - N/A   Clear
9:55 AM 68.0 °F - 46.4 °F 46% 29.98 in 10.0 mi SSW 4.6 mph - N/A   Clear
10:15 AM 71.6 °F - 44.6 °F 38% 29.97 in 10.0 mi NNW 6.9 mph - N/A   Clear
10:35 AM 75.2 °F - 41.0 °F 29% 29.97 in 10.0 mi NNW 8.1 mph - N/A   Clear
10:55 AM 77.0 °F - 41.0 °F 28% 29.97 in 10.0 mi North 5.8 mph - N/A   Clear
11:15 AM 77.0 °F - 41.0 °F 28% 29.96 in 10.0 mi West 3.5 mph - N/A   Clear
11:35 AM 78.8 °F - 41.0 °F 26% 29.96 in 10.0 mi SW 4.6 mph - N/A   Clear
11:55 AM 80.6 °F - 39.2 °F 23% 29.96 in 10.0 mi North 3.5 mph - N/A   Clear
12:15 PM 82.4 °F - 42.8 °F 25% 29.96 in 10.0 mi SSW 4.6 mph - N/A   Clear
12:35 PM 80.6 °F - 46.4 °F 30% 29.95 in 10.0 mi SW 11.5 mph - N/A   Clear
12:55 PM 80.6 °F - 46.4 °F 30% 29.95 in 10.0 mi SW 15.0 mph 18.4 mph N/A   Clear
1:15 PM 82.4 °F - 46.4 °F 28% 29.96 in 10.0 mi SW 16.1 mph 20.7 mph N/A   Clear
1:35 PM 80.6 °F - 44.6 °F 28% 29.95 in 10.0 mi WSW 13.8 mph 19.6 mph N/A   Clear
1:55 PM 80.6 °F - 44.6 °F 28% 29.95 in 10.0 mi WSW 15.0 mph 19.6 mph N/A   Clear
2:15 PM 78.8 °F - 44.6 °F 30% 29.95 in 10.0 mi WSW 13.8 mph 21.9 mph N/A   Clear
2:35 PM 78.8 °F - 46.4 °F 32% 29.95 in 10.0 mi SW 13.8 mph - N/A   Clear
2:55 PM 78.8 °F - 48.2 °F 34% 29.95 in 10.0 mi SW 15.0 mph - N/A   Clear
3:15 PM 78.8 °F - 50.0 °F 36% 29.94 in 10.0 mi WSW 17.3 mph - N/A   Clear
3:35 PM 77.0 °F - 48.2 °F 36% 29.94 in 10.0 mi WSW 17.3 mph - N/A   Clear
3:55 PM 77.0 °F - 48.2 °F 36% 29.93 in 10.0 mi WSW 17.3 mph - N/A   Clear
4:15 PM 78.8 °F - 48.2 °F 34% 29.93 in 10.0 mi SW 13.8 mph 19.6 mph N/A   Clear
4:35 PM 77.0 °F - 48.2 °F 36% 29.93 in 10.0 mi SW 17.3 mph 21.9 mph N/A   Clear
4:55 PM 75.2 °F - 50.0 °F 41% 29.93 in 10.0 mi SW 16.1 mph 19.6 mph N/A   Clear
5:15 PM 75.2 °F - 48.2 °F 38% 29.92 in 10.0 mi SW 12.7 mph 20.7 mph N/A   Clear
5:35 PM 73.4 °F - 48.2 °F 41% 29.92 in 10.0 mi SW 15.0 mph 18.4 mph N/A   Clear
5:55 PM 73.4 °F - 48.2 °F 41% 29.91 in 10.0 mi SW 15.0 mph - N/A   Clear
6:15 PM 73.4 °F - 48.2 °F 41% 29.91 in 10.0 mi SW 11.5 mph 19.6 mph N/A   Clear
6:35 PM 73.4 °F - 48.2 °F 41% 29.91 in 10.0 mi SW 11.5 mph - N/A   Clear
6:55 PM 71.6 °F - 48.2 °F 43% 29.91 in 10.0 mi SSW 6.9 mph - N/A   Clear
7:15 PM 71.6 °F - 48.2 °F 43% 29.91 in 10.0 mi SSW 8.1 mph - N/A   Clear
7:35 PM 71.6 °F - 48.2 °F 43% 29.91 in 10.0 mi SW 8.1 mph - N/A   Clear
7:55 PM 68.0 °F - 48.2 °F 49% 29.91 in 10.0 mi SW 9.2 mph - N/A   Clear
8:15 PM 66.2 °F - 48.2 °F 52% 29.91 in 10.0 mi South 3.5 mph - N/A   Clear
8:35 PM 64.4 °F - 48.2 °F 56% 29.91 in 10.0 mi South 5.8 mph - N/A   Clear
8:55 PM 62.6 °F - 48.2 °F 59% 29.92 in 10.0 mi Calm Calm - N/A   Clear
9:15 PM 59.0 °F - 48.2 °F 67% 29.92 in 10.0 mi South 3.5 mph - N/A   Clear
9:35 PM 62.6 °F - 48.2 °F 59% 29.92 in 10.0 mi South 5.8 mph - N/A   Clear
9:55 PM 60.8 °F - 48.2 °F 63% 29.93 in 10.0 mi Calm Calm - N/A   Clear
10:15 PM 57.2 °F - 48.2 °F 72% 29.94 in 10.0 mi Calm Calm - N/A   Clear
10:35 PM 59.0 °F - 48.2 °F 67% 29.94 in 10.0 mi East 4.6 mph - N/A   Clear
10:55 PM 59.0 °F - 48.2 °F 67% 29.94 in 10.0 mi Calm Calm - N/A   Clear
11:15 PM 55.4 °F - 48.2 °F 77% 29.94 in 10.0 mi Calm Calm - N/A   Clear
11:35 PM 53.6 °F - 48.2 °F 82% 29.94 in 10.0 mi NNW 3.5 mph - N/A   Clear
11:55 PM 55.4 °F - 48.2 °F 77% 29.94 in 10.0 mi Calm Calm - N/A   Clear